星链-3775 (STARLINK-3775 )

导读 | 豆包AI

STARLINK-3775是美国SpaceX公司星链(Starlink)星座的一员,于2022年4月21日发射升空,属于近地轨道低轨卫星。星链星座旨在为全球提供高速宽带互联网服务,尤其覆盖偏远地区。作为庞大星链组网中的卫星,它助力构建全球卫星互联网基础设施,为用户提供接入服务,推动太空互联网部署进程,也引发了太空资源利用和天文观测等领域相关讨论。

基本信息
目录编号:
52285
目录名称:
STARLINK-3775
国际标识:
2022-041AA
轨道中心:
EARTH
卫星名称:
星链-3775
卫星全名:
星链-3775 (STARLINK-3775 )
卫星状态:
已陨落 最后检测时间 2025-08-20
发射日期:
2022-04-21 UTC
国别 :
美国 (US)
星等 :
--
轨道信息
数据来源 国际轨道数据
星历时间: 2025-08-20T14:58:30+0800
轨道信息已过期206天
半长轴: 6496.166km
偏心率: 0.0014928
轨道倾角: 53.244°
近地点辐角 59.180°
升交点赤经 268.642°
平近点角 23.509°
近地点: 108.333km
远地点: 127.729km
周期: 86.845分钟
每日圈数: 16.581245
详细信息
固有亮度:
5
最大亮度:
2.5
卫星平台:
Starlink v1.5
覆盖范围:
全球
运营商:
太空探索技术公司
运营商所在国:
美国
制造商(研发单位):
太空探索技术公司
制造商所在国:
美国
使用方式:
暂无
卫星简介
星链(Starlink)计划是由太空探索技术公司(SpaceX)提出的一个巨型低轨卫星互联网星座项目,计划在2019年至2024年间在太空搭建由约1.2万颗卫星组成的“星链”网络,其中1584颗将部署在地球上空550千米处的近地轨道,并从2020年开始工作。该卫星仍在工作。